Location: Chavannes
(47.1090°N, 0.2226°W)
Time: 14:17:21
(UTC+00:00)

SJ-6B - Pass Details

Date: 16 October 2021
Orbit: 509 x 579 km, 97.5° (Epoch: 03 December)

Event Time Altitude Azimuth Distance (km) Brightness Sun altitude
Exits shadow 19:20:32 23° 13° (NNE) 1,190 4.5 -22.7°
Drops below altitude 10° 19:22:10 10° 0° (N) 1,798 5.6 -22.9°
Sets 19:24:20 0° 354° (N) 2,682 6.6 -23.3°
